Location: SBMNH
(34.4407°N, 119.7157°W)
Time: 20:38:26
(UTC-07:00)

X-37B - Pass Details

Date: 17 August 2022
Orbit: 329 x 342 km, 45.0° (Epoch: 29 September)

Event Time Altitude Azimuth Distance (km) Brightness Sun altitude
Exits shadow 04:12:13 16° 92° (E) 991 3.2 -24.4°
Drops below altitude 10° 04:12:58 10° 99° (E) 1,277 3.7 -24.3°
Sets 04:15:03 0° 107° (ESE) 2,115 4.8 -24.0°
